Weather History for Pullman, WA

Change the Weather History Date:

Saturday, October 6, 2012

  Actual Average Record
Temperature  
Mean Temperature 46 °F 51 °F  
Max Temperature 63 °F 64 °F 81 °F (1971)
Min Temperature 28 °F 38 °F 23 °F (2009)
Degree Days  
Heating Degree Days 19 14  
Month to date heating degree days 111 79  
Since 1 July heating degree days 383 440  
Cooling Degree Days 0 0  
Month to date cooling degree days 0 0  
Year to date cooling degree days 248 212  
Moisture  
Dew Point 14 °F    
Average Humidity 34    
Maximum Humidity 50    
Minimum Humidity 17    
Precipitation  
Precipitation 0.00 in 0.03 in 0.38 in (2011)
Month to date precipitation 0.00 0.20  
Year to date precipitation 15.71 11.89  
Sea Level Pressure  
Sea Level Pressure 30.33 in    
Wind  
Wind Speed 3 mph (East)    
Max Wind Speed 14 mph    
Max Gust Speed 29 mph    
Visibility 9 miles    
Events      
T = Trace of Precipitation, MM = Missing Value Source: NWS Daily Summary

Daily Weather History Graph

Daily Weather History Graph

Search for Another Location

Airport:

Trip Planner

Search our weather history database for the weather conditions in past years. The results will help you decide how hot, cold, wet, or windy it might be!

Date:

Astronomy

Oct. 06, 2012 Rise Set
Actual Time 6:54 AM PDT 6:17 PM PDT
Civil Twilight 6:24 AM PDT 6:47 PM PDT
Nautical Twilight 5:49 AM PDT 7:22 PM PDT
Astronomical Twilight 5:13 AM PDT 7:57 PM PDT
Moon 10:20 PM PDT (10/6) 1:09 PM PDT (10/6)
Length of Visible Light 12h 23m
Length of Day
11h 22m
Waning Gibbous, 64% of the Moon is Illuminated
Oct 6
Waning Gibbous
Oct 8
Last Quarter
Oct 15
New
Oct 21
First Quarter
Oct 29
Full

Hourly Weather History & Observations

Time (PDT) Temp. Windchill Dew Point Humidity Pressure Visibility Wind Dir Wind Speed Gust Speed Precip Events Conditions
12:53 AM 30.0 °F - 12.9 °F 49% 30.36 in 10.0 mi Calm Calm - N/A   Clear
1:53 AM 28.0 °F - 12.0 °F 51% 30.37 in 10.0 mi Calm Calm - N/A   Clear
2:53 AM 30.9 °F 26.2 °F 12.9 °F 47% 30.36 in 10.0 mi NE 4.6 mph - N/A   Clear
3:53 AM 32.0 °F - 12.9 °F 45% 30.35 in 10.0 mi Calm Calm - N/A   Clear
4:53 AM 36.0 °F - 14.0 °F 41% 30.35 in 10.0 mi Calm Calm - N/A   Clear
5:53 AM 30.9 °F - 12.9 °F 47% 30.37 in 10.0 mi Calm Calm - N/A   Clear
6:53 AM 33.1 °F - 12.9 °F 43% 30.38 in 10.0 mi Calm Calm - N/A   Clear
7:53 AM 35.1 °F - 16.0 °F 46% 30.40 in 10.0 mi Calm Calm - N/A   Clear
8:53 AM 45.0 °F 40.1 °F 16.0 °F 31% 30.39 in 8.0 mi East 9.2 mph - N/A   Clear
9:53 AM 50.0 °F - 16.0 °F 26% 30.39 in 7.0 mi ESE 9.2 mph - N/A   Clear
10:53 AM 52.0 °F - 15.1 °F 23% 30.38 in 8.0 mi ESE 10.4 mph - N/A   Clear
11:53 AM 54.0 °F - 12.9 °F 20% 30.36 in 9.0 mi ESE 8.1 mph - N/A   Clear
12:53 PM 57.0 °F - 15.1 °F 19% 30.35 in 10.0 mi Variable 3.5 mph - N/A   Clear
1:53 PM 57.9 °F - 15.1 °F 19% 30.33 in 10.0 mi Calm Calm - N/A   Clear
2:53 PM 60.1 °F - 15.1 °F 17% 30.30 in 9.0 mi Variable 3.5 mph - N/A   Clear
3:53 PM 61.0 °F - 15.1 °F 17% 30.28 in 9.0 mi South 3.5 mph - N/A   Clear
4:53 PM 61.0 °F - 15.1 °F 17% 30.26 in 9.0 mi Variable 3.5 mph - N/A   Clear
5:53 PM 57.9 °F - 15.1 °F 19% 30.27 in 7.0 mi NNW 5.8 mph - N/A   Clear
6:53 PM 50.0 °F - 15.1 °F 25% 30.28 in 10.0 mi Calm Calm - N/A   Clear
7:53 PM 41.0 °F - 14.0 °F 33% 30.28 in 10.0 mi Calm Calm - N/A   Clear
8:53 PM 37.9 °F - 14.0 °F 38% 30.27 in 10.0 mi Calm Calm - N/A   Clear
9:53 PM 35.1 °F - 12.9 °F 40% 30.26 in 10.0 mi Calm Calm - N/A   Clear
10:53 PM 36.0 °F - 14.0 °F 41% 30.25 in 8.0 mi Calm Calm - N/A   Clear
11:53 PM 34.0 °F - 15.1 °F 46% 30.25 in 10.0 mi Calm Calm - N/A   Clear